CW1631 Weather Reports


Display with metric or nautical units.
time (UTC)temp
F
wind
direction
speed
MPH
gust
MPH
rain 1hr
in
rain 24hr
in
rain mn
in
humidity
%
barometer
mb
20260902161716 69 114 3.0 5.0 0.00 0.68 0.68 96 1019.0
20260902161211 69 139 4.0 6.0 0.00 0.68 0.68 97 1018.9
20260902160708 69 142 5.0 7.0 0.07 0.68 0.68 97 1018.6
20260902160203 68 119 0.0 1.0 0.12 0.68 0.68 98 1018.7
20260902155701 68 96 4.0 5.0 0.12 0.68 0.68 97 1018.6
20260902155159 68 68 1.0 2.0 0.19 0.66 0.66 97 1019.0
20260902154655 68 95 3.0 3.0 0.35 0.66 0.66 97 1019.1
20260902154154 68 89 3.0 5.0 0.54 0.64 0.64 97 1019.1
20260902153649 68 46 5.0 6.0 0.47 0.59 0.59 97 1019.1
20260902153143 68 354 2.0 2.0 0.42 0.55 0.55 97 1019.1
20260902152640 68 344 3.0 5.0 0.42 0.51 0.51 96 1018.9
20260902152135 68 291 1.0 2.0 0.50 0.47 0.47 96 1019.1
20260902151630 68 228 5.0 6.0 0.71 0.44 0.44 96 1018.7
20260902151125 68 293 0.0 1.0 0.64 0.41 0.41 96 1018.4
20260902150621 68 226 6.0 7.0 0.38 0.32 0.32 97 1018.2
20260902150115 68 160 3.0 3.0 1.09 0.30 0.30 96 1018.0
20260902145610 68 115 5.0 6.0 1.25 0.27 0.27 96 1017.8
20260902145109 68 293 7.0 8.0 0.73 0.16 0.16 95 1018.7
20260902144606 68 190 8.0 9.0 0.19 0.06 0.06 95 1018.8
20260902144106 69 158 9.0 11.0 0.12 0.04 0.04 95 1018.1
20260902143601 69 165 7.0 8.0 0.12 0.03 0.03 95 1018.3
20260902143057 69 133 7.0 8.0 0.12 0.02 0.02 95 1018.1
20260902142552 69 158 7.0 9.0 0.07 0.01 0.01 94 1018.1
20260902142048 69 93 5.0 6.0 0.00 0.00 0.00 94 1018.1
20260902141542 69 117 2.0 2.0 0.00 0.00 0.00 94 1018.3
20260902141037 70 142 5.0 6.0 0.00 0.00 0.00 94 1018.4
20260902140532 70 194 5.0 6.0 0.00 0.00 0.00 93 1018.5
20260902140027 70 157 5.0 7.0 0.00 0.00 0.00 93 1018.7
20260902135521 70 191 4.0 5.0 0.00 0.00 0.00 93 1018.8
20260902135016 70 243 0.0 1.0 0.00 0.00 0.00 93 1018.9
20260902134512 70 171 4.0 5.0 0.00 0.00 0.00 94 1018.9
20260902134012 70 177 5.0 6.0 0.00 0.00 0.00 94 1018.7
20260902133507 70 155 6.0 7.0 0.00 0.00 0.00 94 1018.5
20260902133006 70 158 8.0 9.0 0.00 0.00 0.00 94 1018.1
20260902132502 71 195 7.0 8.0 0.00 0.00 0.00 94 1017.9
20260902131956 71 167 9.0 10.0 0.00 0.00 0.00 95 1017.8
20260902131453 71 89 6.0 8.0 0.00 0.00 0.00 95 1018.2
20260902130952 71 166 5.0 7.0 0.00 0.00 0.00 96 1018.3
20260902130448 71 166 6.0 7.0 0.00 0.00 0.00 96 1018.2
20260902125943 71 125 7.0 8.0 0.00 0.00 0.00 97 1018.2
20260902125440 71 126 7.0 8.0 0.00 0.00 0.00 98 1018.1
20260902124935 71 125 8.0 8.0 0.00 0.00 0.00 98 1018.2
20260902124431 71 162 5.0 7.0 0.00 0.00 0.00 99 1018.1
20260902123926 71 87 4.0 5.0 0.00 0.00 0.00 99 1017.9
20260902123422 71 208 2.0 3.0 0.00 0.00 0.00 99 1018.0
20260902122920 71 134 6.0 7.0 0.00 0.00 0.00 99 1018.0
20260902122417 71 152 2.0 2.0 0.00 0.00 0.00 99 1018.0
20260902121912 71 140 2.0 3.0 0.00 0.00 0.00 99 1017.5
20260902121407 71 141 1.0 1.0 0.00 0.00 0.00 99 1017.6
20260902120902 71 135 4.0 5.0 0.00 0.00 0.00 99 1017.6
20260902120358 71 97 3.0 3.0 0.00 0.00 0.00 99 1017.4
20260902115857 71 111 3.0 3.0 0.00 0.00 0.00 99 1017.4
20260902115354 70 117 3.0 3.0 0.00 0.00 0.00 99 1017.7
20260902114850 70 84 1.0 2.0 0.00 0.00 0.00 99 1017.6
20260902114346 70 110 3.0 3.0 0.00 0.00 0.00 99 1017.7
20260902113840 70 119 3.0 3.0 0.00 0.00 0.00 99 1017.5
20260902113336 70 125 2.0 2.0 0.00 0.00 0.00 99 1017.6
20260902112835 70 161 5.0 7.0 0.00 0.00 0.00 99 1017.3
20260902112332 70 205 1.0 1.0 0.00 0.00 0.00 99 1017.4
20260902111827 70 102 2.0 2.0 0.00 0.00 0.00 99 1017.4
20260902111324 70 308 1.0 1.0 0.00 0.00 0.00 99 1017.5
20260902110819 69 25 2.0 2.0 0.00 0.00 0.00 99 1017.3
20260902110315 69 171 2.0 2.0 0.00 0.00 0.00 99 1017.5
20260902105814 69 70 0.0 1.0 0.00 0.00 0.00 99 1017.3
20260902105310 69 215 1.0 1.0 0.00 0.00 0.00 99 1017.3
20260902104805 69 304 0.0 1.0 0.00 0.00 0.00 99 1017.3
20260902104301 69 252 0.0 0.0 0.00 0.00 0.00 99 1017.5
20260902103801 69 232 1.0 1.0 0.00 0.00 0.00 99 1017.5
20260902103301 69 288 0.0 0.0 0.00 0.00 0.00 99 1017.6
20260902102756 69 294 1.0 1.0 0.00 0.00 0.00 99 1017.7
20260902102253 69 286 1.0 1.0 0.00 0.00 0.00 99 1017.7
20260902101749 69 241 1.0 1.0 0.00 0.00 0.00 99 1017.6
20260902101243 69 260 0.0 0.0 0.00 0.00 0.00 99 1017.4
20260902100743 69 348 1.0 1.0 0.00 0.00 0.00 99 1017.4
20260902100237 69 47 2.0 2.0 0.00 0.00 0.00 99 1017.7
20260902095732 69 209 1.0 1.0 0.00 0.00 0.00 99 1017.6
20260902095226 69 74 2.0 2.0 0.00 0.00 0.00 99 1017.5
20260902094721 69 58 2.0 2.0 0.00 0.00 0.00 99 1017.5
20260902094217 69 359 1.0 1.0 0.00 0.00 0.00 99 1017.5
20260902093716 69 300 0.0 0.0 0.00 0.00 0.00 99 1017.6
20260902093212 69 278 0.0 0.0 0.00 0.00 0.00 99 1017.5
20260902092712 69 276 0.0 0.0 0.00 0.00 0.00 99 1017.9
20260902092207 69 278 0.0 1.0 0.00 0.00 0.00 99 1017.4
20260902091701 69 337 2.0 2.0 0.00 0.00 0.00 99 1017.6
20260902091158 69 216 1.0 1.0 0.00 0.00 0.00 99 1017.6
20260902090654 69 327 0.0 1.0 0.00 0.00 0.00 99 1017.6
20260902090152 69 240 0.0 1.0 0.00 0.00 0.00 99 1017.6
20260902085647 69 282 0.0 0.0 0.00 0.00 0.00 99 1017.7
20260902085142 69 273 0.0 0.0 0.00 0.00 0.00 99 1017.6
20260902084638 69 288 0.0 0.0 0.00 0.00 0.00 99 1017.4
20260902084134 69 252 0.0 0.0 0.00 0.00 0.00 99 1017.5
20260902083629 69 253 0.0 0.0 0.00 0.00 0.00 99 1017.5
20260902083128 69 251 0.0 0.0 0.00 0.00 0.00 99 1017.6
20260902082624 69 326 1.0 1.0 0.00 0.00 0.00 99 1017.4
20260902082120 69 279 0.0 0.0 0.00 0.00 0.00 99 1017.4
20260902081617 69 255 0.0 0.0 0.00 0.00 0.00 99 1017.3
20260902081116 68 242 0.0 0.0 0.00 0.00 0.00 99 1017.4
20260902080612 68 278 0.0 0.0 0.00 0.00 0.00 99 1017.2
20260902080108 68 294 0.0 0.0 0.00 0.00 0.00 99 1017.1
20260902075607 68 9 1.0 1.0 0.00 0.00 0.00 99 1017.3
20260902075104 68 221 1.0 1.0 0.00 0.00 0.00 99 1017.2
20260902074559 68 200 1.0 1.0 0.00 0.00 0.00 99 1017.4
20260902074054 68 213 1.0 1.0 0.00 0.00 0.00 99 1017.5
20260902073549 68 244 0.0 0.0 0.00 0.00 0.00 99 1017.2
20260902073046 68 281 0.0 1.0 0.00 0.00 0.00 99 1017.6
20260902072541 68 351 1.0 1.0 0.00 0.00 0.00 99 1017.3
20260902072038 68 45 2.0 2.0 0.00 0.00 0.00 99 1017.3
20260902071537 68 52 2.0 2.0 0.00 0.00 0.00 99 1017.3
20260902071033 68 74 2.0 2.0 0.00 0.00 0.00 99 1017.4
20260902070529 68 70 2.0 2.0 0.00 0.00 0.00 99 1017.3
20260902070023 68 72 2.0 2.0 0.00 0.00 0.00 99 1017.5
20260902065517 68 45 1.0 2.0 0.00 0.00 0.00 99 1017.8
20260902065013 68 46 2.0 3.0 0.00 0.00 0.00 99 1017.6
20260902064509 69 33 3.0 3.0 0.00 0.00 0.00 99 1017.4
20260902064004 69 41 1.0 2.0 0.00 0.00 0.00 99 1017.6
20260902063503 69 44 0.0 1.0 0.00 0.00 0.00 99 1017.5
20260902062958 69 43 1.0 1.0 0.00 0.00 0.00 99 1017.5
20260902062451 69 61 1.0 1.0 0.00 0.00 0.00 99 1017.5
20260902061947 69 90 3.0 3.0 0.00 0.00 0.00 99 1017.4
20260902061442 69 78 1.0 1.0 0.00 0.00 0.00 99 1017.6
20260902060938 69 53 0.0 0.0 0.00 0.00 0.00 99 1017.6
20260902060434 69 35 2.0 2.0 0.00 0.00 0.00 99 1017.5
20260902055930 69 37 1.0 1.0 0.00 0.00 0.00 99 1017.6
20260902055426 69 21 1.0 1.0 0.00 0.00 0.00 99 1017.5
20260902054921 69 336 0.0 1.0 0.00 0.00 0.00 99 1017.6
20260902054416 69 49 1.0 1.0 0.00 0.00 0.00 99 1017.5
20260902053911 69 33 2.0 2.0 0.00 0.00 0.00 99 1017.5
20260902053407 69 322 0.0 1.0 0.00 0.00 0.00 99 1017.4
20260902052905 69 12 1.0 2.0 0.00 0.00 0.00 99 1017.5
20260902052401 69 313 0.0 0.0 0.00 0.00 0.00 99 1017.3
20260902051855 69 308 1.0 1.0 0.00 0.00 0.00 99 1017.5
20260902051350 69 279 0.0 0.0 0.00 0.00 0.00 99 1017.5
20260902050850 69 342 0.0 1.0 0.00 0.00 0.00 99 1017.4
20260902050349 69 247 0.0 0.0 0.00 0.00 0.00 99 1017.2
20260902045844 69 249 0.0 0.0 0.00 0.00 0.00 99 1017.2
20260902045340 69 237 1.0 1.0 0.00 0.00 0.00 99 1017.1
20260902044836 69 344 0.0 1.0 0.00 0.00 0.00 99 1017.3
20260902044332 69 213 1.0 1.0 0.00 0.00 0.00 99 1017.5
20260902043831 69 264 0.0 0.0 0.00 0.00 0.00 99 1017.1
20260902043327 69 275 0.0 0.0 0.00 0.00 0.00 99 1017.0
20260902042827 69 267 0.0 0.0 0.00 0.00 0.00 99 1017.1
20260902042321 69 249 0.0 0.0 0.00 0.00 0.00 99 1017.2
20260902041817 69 240 0.0 1.0 0.00 0.00 0.00 99 1017.0
20260902041316 69 169 2.0 2.0 0.00 0.00 0.00 99 1017.0
20260902040815 69 137 1.0 2.0 0.00 0.00 0.00 99 1016.7
20260902040311 69 15 1.0 1.0 0.00 0.00 0.00 99 1016.8
20260902035809 69 279 0.0 0.0 0.00 0.15 0.15 99 1016.8
20260902035306 69 266 0.0 0.0 0.00 0.15 0.15 99 1016.8
20260902034804 69 248 0.0 0.0 0.00 0.15 0.15 99 1016.8
20260902034300 69 221 0.0 1.0 0.00 0.15 0.15 99 1016.7
20260902033757 69 31 0.0 0.0 0.00 0.15 0.15 99 1016.6
20260902033253 69 18 1.0 1.0 0.00 0.15 0.15 99 1016.2
20260902032751 70 326 0.0 0.0 0.00 0.15 0.15 99 1016.2
20260902032247 70 355 1.0 1.0 0.00 0.15 0.15 99 1016.7
20260902031746 70 355 0.0 0.0 0.00 0.15 0.15 99 1016.7
20260902031242 70 264 0.0 0.0 0.00 0.15 0.15 99 1016.6
20260902030738 70 250 0.0 0.0 0.00 0.15 0.15 98 1016.7
20260902030237 70 237 0.0 0.0 0.00 0.15 0.15 99 1016.9
20260902025736 70 236 0.0 0.0 0.00 0.15 0.15 99 1016.5
20260902025232 70 236 0.0 0.0 0.00 0.15 0.15 99 1016.6
20260902024727 70 82 1.0 1.0 0.00 0.15 0.15 99 1016.6
20260902024222 70 328 0.0 1.0 0.00 0.15 0.15 98 1016.7
20260902023718 71 320 0.0 0.0 0.00 0.15 0.15 98 1016.6
20260902023213 71 308 1.0 1.0 0.00 0.15 0.15 99 1016.7
20260902022712 70 291 0.0 1.0 0.00 0.15 0.15 99 1016.7
20260902022208 71 304 0.0 0.0 0.00 0.15 0.15 98 1016.7
20260902021703 71 308 1.0 1.0 0.00 0.15 0.15 98 1016.6
20260902021157 71 136 1.0 1.0 0.00 0.15 0.15 98 1016.6
20260902020654 71 140 1.0 1.0 0.00 0.15 0.15 98 1016.6
20260902020149 71 298 0.0 0.0 0.00 0.15 0.15 98 1016.7
20260902015645 71 281 0.0 0.0 0.00 0.15 0.15 98 1016.9
20260902015141 71 274 0.0 0.0 0.00 0.15 0.15 98 1016.3
20260902014637 72 288 0.0 0.0 0.00 0.15 0.15 98 1016.5
20260902014132 72 239 0.0 0.0 0.00 0.15 0.15 98 1016.5
20260902013632 72 214 1.0 1.0 0.00 0.15 0.15 98 1016.3
20260902013128 72 254 0.0 0.0 0.00 0.15 0.15 98 1016.2
20260902012622 72 260 0.0 0.0 0.00 0.15 0.15 98 1016.3
20260902012118 72 252 0.0 0.0 0.00 0.15 0.15 98 1016.1
20260902011613 72 251 0.0 0.0 0.00 0.15 0.15 98 1015.8
20260902011113 72 263 0.0 0.0 0.00 0.15 0.15 98 1016.0
20260902010607 72 301 0.0 1.0 0.00 0.15 0.15 97 1015.7
20260902005600 73 256 0.0 0.0 0.00 0.15 0.15 98 1015.8
20260902005057 73 245 0.0 1.0 0.00 0.15 0.15 97 1015.8
20260902004556 73 252 0.0 0.0 0.00 0.15 0.15 97 1015.7
20260902004051 73 255 0.0 0.0 0.00 0.15 0.15 97 1015.7
20260902003547 73 286 0.0 0.0 0.00 0.15 0.15 97 1015.4
20260902003042 73 342 1.0 1.0 0.00 0.15 0.15 97 1015.5
20260902002538 73 2 0.0 0.0 0.00 0.15 0.15 97 1015.4
20260902002032 73 82 1.0 1.0 0.00 0.15 0.15 97 1015.3
20260902001527 73 248 0.0 0.0 0.00 0.15 0.15 96 1015.3
20260902001022 73 260 0.0 0.0 0.00 0.15 0.15 96 1015.4
20260902000517 73 257 0.0 0.0 0.00 0.15 0.15 96 1015.2
20260902000013 73 201 1.0 1.0 0.00 0.15 0.15 95 1015.1
20260901235507 74 196 0.0 0.0 0.00 0.15 0.15 95 1015.2
20260901235003 75 253 0.0 0.0 0.00 0.15 0.15 95 1015.0
20260901234501 75 268 0.0 0.0 0.00 0.15 0.15 95 1015.1
20260901233956 75 265 0.0 0.0 0.00 0.15 0.15 94 1015.0
20260901233451 75 256 0.0 0.0 0.00 0.15 0.15 94 1015.1
20260901232947 75 288 0.0 0.0 0.00 0.15 0.15 93 1015.0
20260901232442 76 343 1.0 1.0 0.00 0.15 0.15 92 1014.8
20260901231937 77 257 0.0 0.0 0.00 0.15 0.15 90 1014.7
20260901231434 78 235 1.0 1.0 0.00 0.15 0.15 88 1014.9
20260901230930 78 262 0.0 0.0 0.00 0.15 0.15 86 1015.0
20260901230429 78 269 0.0 0.0 0.00 0.15 0.15 85 1015.0
20260901225925 78 306 0.0 0.0 0.00 0.15 0.15 85 1014.8
20260901225425 79 32 0.0 1.0 0.00 0.15 0.15 84 1014.9
20260901224920 79 309 2.0 2.0 0.00 0.15 0.15 83 1014.8
20260901224416 80 309 1.0 1.0 0.00 0.15 0.15 82 1014.8
20260901223912 80 265 1.0 1.0 0.00 0.15 0.15 80 1014.8
20260901223407 81 276 1.0 2.0 0.00 0.15 0.15 79 1015.0
20260901222902 82 281 0.0 0.0 0.00 0.15 0.15 79 1014.7
20260901222359 81 269 0.0 0.0 0.00 0.15 0.15 80 1014.8
20260901221854 81 269 0.0 0.0 0.00 0.15 0.15 81 1014.7
20260901221349 81 253 0.0 0.0 0.00 0.15 0.15 81 1014.8
20260901220844 80 275 0.0 0.0 0.00 0.15 0.15 82 1014.7
20260901220343 80 269 0.0 0.0 0.00 0.15 0.15 83 1014.9
20260901215842 80 256 0.0 0.0 0.00 0.15 0.15 83 1014.9
20260901215341 80 261 0.0 0.0 0.00 0.15 0.15 82 1014.8
20260901214840 80 265 0.0 0.0 0.00 0.15 0.15 82 1014.8
20260901214339 80 272 1.0 1.0 0.00 0.15 0.15 83 1014.7
20260901213834 80 249 0.0 0.0 0.00 0.15 0.15 82 1014.5
20260901213334 80 277 2.0 2.0 0.00 0.15 0.15 81 1014.6
20260901212828 80 276 1.0 1.0 0.00 0.15 0.15 81 1014.7
20260901212324 80 272 1.0 1.0 0.00 0.15 0.15 80 1014.5
20260901211820 80 164 1.0 1.0 0.00 0.15 0.15 80 1014.4
20260901211316 80 322 1.0 1.0 0.00 0.15 0.15 80 1014.5
20260901210811 80 315 3.0 3.0 0.00 0.15 0.15 80 1014.7
20260901210307 80 338 4.0 5.0 0.00 0.15 0.15 80 1014.5
20260901205803 80 308 2.0 2.0 0.00 0.15 0.15 82 1014.6
20260901205306 80 327 3.0 3.0 0.00 0.15 0.15 82 1014.4
20260901204757 80 234 2.0 3.0 0.00 0.15 0.15 83 1014.8
20260901204253 80 223 4.0 6.0 0.00 0.15 0.15 83 1014.7
20260901203748 79 211 3.0 3.0 0.00 0.15 0.15 84 1014.7
20260901203248 79 220 2.0 2.0 0.00 0.15 0.15 85 1014.6
20260901202742 79 197 3.0 3.0 0.00 0.15 0.15 84 1014.7
20260901202238 79 241 2.0 2.0 0.00 0.15 0.15 85 1014.8
20260901201733 79 206 3.0 3.0 0.00 0.15 0.15 86 1014.7
20260901201232 78 199 3.0 3.0 0.00 0.15 0.15 86 1014.7
20260901200727 78 233 3.0 3.0 0.00 0.15 0.15 87 1014.8
20260901200222 78 211 3.0 5.0 0.00 0.15 0.15 86 1014.8
20260901195720 78 223 2.0 2.0 0.00 0.15 0.15 86 1014.8
20260901195220 78 256 2.0 2.0 0.00 0.15 0.15 87 1015.0
20260901194715 78 205 3.0 3.0 0.00 0.15 0.15 86 1014.9
20260901194205 78 196 3.0 3.0 0.00 0.15 0.15 88 1014.8
20260901193701 77 222 3.0 3.0 0.00 0.15 0.15 87 1014.9
20260901193154 78 191 5.0 6.0 0.00 0.15 0.15 87 1015.1
20260901192649 78 219 4.0 5.0 0.00 0.15 0.15 87 1014.8
20260901192144 78 221 2.0 2.0 0.00 0.15 0.15 87 1014.9
20260901191640 78 251 2.0 2.0 0.00 0.15 0.15 86 1014.9
20260901191136 79 221 3.0 3.0 0.00 0.15 0.15 85 1014.9
20260901190632 78 228 5.0 5.0 0.00 0.15 0.15 85 1014.9
20260901190131 78 205 6.0 8.0 0.00 0.15 0.15 85 1015.0
20260901185630 78 207 5.0 6.0 0.00 0.15 0.15 86 1014.7
20260901185128 78 213 5.0 6.0 0.00 0.15 0.15 85 1014.8
20260901184624 78 214 4.0 5.0 0.00 0.15 0.15 85 1014.7
20260901184119 78 208 5.0 6.0 0.00 0.15 0.15 87 1014.7
20260901183614 77 207 5.0 6.0 0.00 0.15 0.15 86 1014.6
20260901183109 77 205 6.0 7.0 0.00 0.15 0.15 86 1014.7
20260901182605 77 222 6.0 7.0 0.00 0.15 0.15 86 1014.7
20260901182104 77 235 5.0 6.0 0.00 0.15 0.15 86 1014.7
20260901181559 77 242 6.0 7.0 0.00 0.15 0.15 85 1014.4
20260901181058 78 204 5.0 6.0 0.00 0.15 0.15 85 1014.4
20260901180557 78 212 5.0 6.0 0.00 0.15 0.15 86 1014.4
20260901180052 78 202 4.0 5.0 0.00 0.15 0.15 85 1014.5
20260901175546 77 206 7.0 7.0 0.00 0.15 0.15 86 1014.6
20260901175045 77 224 6.0 7.0 0.00 0.15 0.15 87 1014.4
20260901174542 76 233 4.0 5.0 0.00 0.15 0.15 89 1014.6
20260901174037 75 238 4.0 5.0 0.00 0.15 0.15 89 1014.7
20260901173532 75 199 4.0 5.0 0.00 0.15 0.15 90 1014.4
20260901173028 75 220 7.0 7.0 0.00 0.15 0.15 91 1014.3
20260901172523 74 243 5.0 6.0 0.00 0.15 0.15 90 1014.5
20260901172021 73 226 4.0 5.0 0.00 0.15 0.15 92 1014.7
20260901171521 73 246 3.0 3.0 0.00 0.15 0.15 92 1014.5
20260901171020 73 231 2.0 2.0 0.00 0.15 0.15 92 1014.4
20260901170514 73 227 1.0 2.0 0.00 0.15 0.15 92 1014.7
20260901170014 73 249 3.0 3.0 0.00 0.15 0.15 93 1014.5
20260901165509 73 223 3.0 3.0 0.00 0.15 0.15 93 1014.9
20260901165004 73 299 2.0 2.0 0.00 0.15 0.15 93 1014.6
20260901164500 73 256 1.0 1.0 0.00 0.15 0.15 93 1014.5
20260901163954 73 234 3.0 5.0 0.00 0.15 0.15 93 1014.4
20260901163450 73 224 5.0 6.0 0.00 0.15 0.15 93 1014.6
20260901162948 73 236 3.0 5.0 0.00 0.15 0.15 93 1014.7
20260901162444 73 241 3.0 5.0 0.00 0.15 0.15 93 1014.8
20260901161943 73 240 2.0 3.0 0.00 0.15 0.15 92 1014.7